Location: Góry Miechowskie
(50.3599°N, 20.1803°E)
Time: 20:58:29
(UTC+00:00)

Cosmos 2219 - Pass Details

Date: 19 September 2024
Orbit: 831 x 860 km, 71.1° (Epoch: 13 October)

Event Time Altitude Azimuth Distance (km) Brightness Sun altitude
Rises 02:13:01 0° 146° (SE) 3,394 6.4 -20.4°
Reaches altitude 10° 02:17:05 10° 117° (ESE) 2,473 6.1 -19.8°
Maximum altitude 02:19:12 12° 95° (E) 2,328 6.3 -19.5°
Drops below altitude 10° 02:21:19 10° 73° (ENE) 2,487 6.8 -19.2°
Sets 02:25:25 0° 44° (NE) 3,437 7.7 -18.6°
